Weather History for Dallas/Ft Worth, TX

Change the Weather History Date:

Wednesday, August 14, 2013

  Actual Average Record
Temperature  
Mean Temperature 83 °F 86 °F  
Max Temperature 91 °F 97 °F 106 °F (1911)
Min Temperature 75 °F 76 °F 62 °F (1967)
Degree Days  
Heating Degree Days 0 0  
Month to date heating degree days 0 0  
Since 1 June heating degree days 0 0  
Since 1 July heating degree days 0 0  
Cooling Degree Days 18 21  
Month to date cooling degree days 348 294  
Year to date cooling degree days 1884 1838  
Since 1 June cooling degree days 1495 1416  
Growing Degree Days 33 (Base 50)    
Moisture  
Dew Point 72 °F    
Average Humidity 70    
Maximum Humidity 88    
Minimum Humidity 52    
Precipitation  
Precipitation 0.18 in 0.05 in 2.63 in (1971)
Month to date precipitation 1.07 0.76  
Year to date precipitation 18.42 22.96  
Sea Level Pressure  
Sea Level Pressure 29.96 in    
Wind  
Wind Speed 7 mph (ENE)    
Max Wind Speed 15 mph    
Max Gust Speed 19 mph    
Visibility 10 miles    
Events Rain , Thunderstorm    
T = Trace of Precipitation, MM = Missing Value Source: NWS Daily Summary

Daily Weather History Graph

Daily Weather History Graph

Search for Another Location

Airport:

Trip Planner

Search our weather history database for the weather conditions in past years. The results will help you decide how hot, cold, wet, or windy it might be!

Date:

Astronomy

Aug. 14, 2013 Rise Set
Actual Time 6:50 AM CDT 8:14 PM CDT
Civil Twilight 6:24 AM CDT 8:40 PM CDT
Nautical Twilight 5:53 AM CDT 9:11 PM CDT
Astronomical Twilight 5:20 AM CDT 9:43 PM CDT
Moon 2:23 PM CDT (8/14) 12:17 AM CDT (8/14)
Length of Visible Light 14h 15m
Length of Day
13h 23m
First Quarter, 53% of the Moon is Illuminated
Aug 14
First Quarter
Aug 20
Full
Aug 28
Last Quarter
Sep 5
New
Sep 12
First Quarter

Hourly Weather History & Observations

Time (CDT) Temp. Heat Index Dew Point Humidity Pressure Visibility Wind Dir Wind Speed Gust Speed Precip Events Conditions
12:53 AM 78.1 °F - 73.0 °F 84% 29.96 in 10.0 mi East 5.8 mph - N/A   Mostly Cloudy
1:53 AM 77.0 °F - 73.0 °F 88% 29.94 in 10.0 mi NE 5.8 mph - N/A   Mostly Cloudy
2:53 AM 77.0 °F - 73.0 °F 88% 29.93 in 10.0 mi East 3.5 mph - N/A   Mostly Cloudy
3:53 AM 78.1 °F - 73.0 °F 84% 29.92 in 10.0 mi NE 4.6 mph - 0.00 in Rain Light Rain
4:03 AM 77.0 °F - 73.0 °F 88% 29.95 in 10.0 mi NE 4.6 mph - 0.00 in Rain , Thunderstorm Light Thunderstorms and Rain
4:53 AM 75.9 °F - 73.0 °F 91% 29.95 in 10.0 mi ESE 5.8 mph - 0.18 in Thunderstorm Thunderstorm
5:04 AM 75.9 °F - 73.0 °F 91% 29.97 in 10.0 mi SSE 6.9 mph - N/A   Mostly Cloudy
5:53 AM 75.2 °F - 73.4 °F 94% 29.96 in 10.0 mi ENE 6.9 mph - N/A   Mostly Cloudy
6:53 AM 75.9 °F - 72.0 °F 87% 29.97 in 10.0 mi Calm Calm - N/A   Mostly Cloudy
7:06 AM 75.9 °F - 72.0 °F 87% 30.00 in 10.0 mi Calm Calm - N/A   Overcast
7:24 AM 75.9 °F - 72.0 °F 87% 30.00 in 10.0 mi Calm Calm - N/A   Mostly Cloudy
7:53 AM 78.1 °F - 73.0 °F 84% 29.98 in 10.0 mi NE 6.9 mph - N/A   Mostly Cloudy
8:53 AM 80.1 °F 83.8 °F 72.0 °F 76% 29.99 in 10.0 mi NE 6.9 mph - N/A   Overcast
9:53 AM 81.0 °F 84.9 °F 71.1 °F 72% 30.00 in 10.0 mi NNE 5.8 mph - N/A   Overcast
10:53 AM 82.9 °F 87.5 °F 71.1 °F 67% 30.01 in 10.0 mi NNE 6.9 mph - N/A   Mostly Cloudy
11:53 AM 84.0 °F 89.0 °F 71.1 °F 65% 30.01 in 10.0 mi North 10.4 mph - N/A   Overcast
12:53 PM 86.0 °F 90.7 °F 70.0 °F 59% 29.99 in 10.0 mi NNW 6.9 mph - 0.00 in   Mostly Cloudy
1:53 PM 88.0 °F 92.9 °F 70.0 °F 55% 29.97 in 10.0 mi NE 10.4 mph - N/A   Mostly Cloudy
2:53 PM 89.1 °F 93.7 °F 69.1 °F 52% 29.94 in 10.0 mi NNE 10.4 mph - N/A   Mostly Cloudy
3:53 PM 88.0 °F 92.9 °F 70.0 °F 55% 29.93 in 10.0 mi ENE 11.5 mph 19.6 mph N/A   Mostly Cloudy
4:53 PM 86.0 °F 92.2 °F 72.0 °F 63% 29.92 in 10.0 mi ESE 13.8 mph - N/A   Mostly Cloudy
5:53 PM 82.9 °F 88.8 °F 73.0 °F 72% 29.92 in 10.0 mi SE 6.9 mph - 0.00 in Rain Light Rain
6:53 PM 81.0 °F 85.2 °F 72.0 °F 74% 29.92 in 10.0 mi ESE 11.5 mph - 0.00 in   Mostly Cloudy
7:53 PM 79.0 °F - 72.0 °F 79% 29.94 in 10.0 mi ESE 9.2 mph - 0.00 in   Overcast
8:53 PM 77.0 °F - 72.0 °F 84% 29.96 in 10.0 mi ESE 8.1 mph - N/A   Overcast
9:53 PM 77.0 °F - 72.0 °F 84% 29.98 in 10.0 mi ESE 5.8 mph - N/A   Overcast
10:53 PM 78.1 °F - 71.1 °F 79% 29.99 in 10.0 mi ESE 4.6 mph - N/A   Scattered Clouds
11:53 PM 78.1 °F - 70.0 °F 76% 30.00 in 10.0 mi East 5.8 mph - N/A   Scattered Clouds